Location: *
(18.5200°S, 46.4500°E)
Time: 07:09:38
(UTC+00:00)

Hubble Space Telescope - Pass Details

Date: 19 July 2019
Orbit: 536 x 540 km, 28.5° (Epoch: 23 August)

Event Time Altitude Azimuth Distance (km) Brightness Sun altitude
Rises 15:38:22 0° 300° (WNW) 2,672 6.0 -15.0°
Reaches altitude 10° 15:40:37 10° 303° (WNW) 1,785 4.7 -15.5°
Maximum altitude 15:44:44 67° 25° (NNE) 586 0.8 -16.4°
Enters shadow 15:46:22 34° 97° (E) 893 1.3 -16.8°
